Meath Environmental Platform

Observations for Trim Market St

Time AQI Temp °C Hum % Pres Pa CO μg/m³ H₂S μg/m³ NO μg/m³ NO₂ μg/m³ O₃ μg/m³ SO₂ μg/m³ PM1 μg/m³ PM2.5 μg/m³ PM10 μg/m³
Sunday 23 August 2026
17:24 3 24.4 37 65,672 0 0 0.86 13.39 78.8 0 0.71 3.56 3.91
17:23 3 24.4 37 65,666 0 0 0.88 16.93 71.84 0 1.43 4.62 5.09
17:19 3 24.6 36 65,684 0 0 0.93 12.81 104.43 0 1.43 4.65 5.12
17:16 3 24.8 36 65,661 0 0 1.15 10.74 73.28 0 0.71 4.67 5.14
17:12 3 25.1 35 65,713 0 0 0.94 18.19 76.52 0 2.14 5.23 5.76
17:11 3 25.2 35 65,744 0 0 0.9 12.2 80.13 0 1.43 5.77 5.86
17:05 3 25.6 34 65,776 0 0 0.9 14.21 86.68 0 1.43 5.27 5.8
17:04 3 25.6 34 65,762 0 0 0.9 13.91 74.92 0 0.71 4.21 4.63
17:03 3 25.7 34 65,774 0 0 0.86 12.86 85.54 0 0.71 4.75 5
17:02 3 25.8 34 65,791 0 0 0.86 13.37 84.36 0 0 3.14 3.46
17:01 3 25.9 34 65,809 0 0 0.87 13.87 77.62 0 0 3.69 4.05
17:00 3 25.9 34 65,805 0 0 0.92 14.2 77.41 0 0.71 3.69 4.05
16:59 3 25.9 34 65,795 0 0 0.89 15.3 77.16 0 0.71 4.22 4.64
16:58 3 25.9 34 65,811 0 0 0.9 15.21 74.97 0 0 3.14 3.46
16:57 3 26 34 65,805 0 0 0.92 16.32 75.28 0 0.71 4.22 4.64
16:56 3 26 34 65,819 0 0 0.93 13.93 79.51 0 0 2.61 2.87
16:55 3 25.9 34 65,815 0 0 0.89 13.94 77.52 0 0 3.15 3.46
16:54 3 26 34 65,809 0 0 0.94 15.76 76.4 0 0 3.69 4.05
16:53 3 25.9 34 65,803 0 0 0.98 13.96 75.17 0 0 3.14 3.46
16:52 3 25.9 34 65,793 0 0 0.99 14.88 74.97 0 0.71 3.68 4.05